Regional Weather Roundup
Issued by NWS Charleston, SC

Current Version | Previous Version | Text Only | Print | Product List | Glossary Off
Versions: 1 2 3 4 5 6 7 8 9 10 11 12 13 14 15 16 17 18 19 20 21 22 23 24 25 26 27 28 29 30 31 32 33 34 35 36 37 38 39 40 41 42 43 44 45 46 47 48 49 50

000
ASUS42 KCHS 181027
RWRCHS

Regional Weather Roundup
National Weather Service Charleston SC
500 AM EST MON DEC 18 2017

NOTE: "fair" indicates few or no clouds below 12,000 feet with no
significant weather and/or obstructions to visibility.

Not all stations are quality controlled. Use data with caution,
especially dewpoint observations.

SCZ027-030-031-034>040-042>050-181100-
...Southeast South Carolina...

CITY           SKY/WX    TMP DP  RH WIND       PRES   REMARKS
N Charleston   CLOUDY    61  57  87 SW6       30.17S
Waterfront Prk   N/A     62  59  90 SW5       30.02F
Mount Pleasant CLOUDY    63  57  82 CALM      30.17S
Johns Island   CLOUDY    63  59  88 SW5       30.17S
Pinopolis        N/A     55  52  88 CALM      30.08F
Moncks Corner  FAIR      55  54  94 CALM      30.16F
Summerville    CLOUDY    59  55  88 CALM      30.17F
Beaufort MCAS  CLOUDY    58  56  93 SW3       30.17F
Beaufort Arpt  CLOUDY    59  55  88 CALM      30.17S
Hilton Head Is NOT AVBL
Walterboro     CLOUDY    57  55  94 SW6       30.17S
Allendale      CLOUDY    57  54  88 CALM      30.15S

...Southern Midlands and Pee Dee...

CITY           SKY/WX    TMP DP  RH WIND       PRES   REMARKS
Georgetown     CLOUDY    54  52  94 CALM      30.18S
Kingstree      CLOUDY    52  48  87 CALM      30.16R
Orangeburg     CLOUDY    55  49  80 SW3       30.15F
Barnwell         N/A     59  54  82 CALM      30.15F
Aiken          CLOUDY    50  43  76 CALM      30.18S
Manning        PTSUNNY   52  36  54 MISG      30.15F
Columbia       CLOUDY    53  44  71 S3        30.15F
Sumter         CLOUDY    52  41  65 CALM      30.14S
Florence       MOCLDY    52  42  69 CALM      30.16F
Myrtle Beach   CLOUDY    55  52  89 CALM      30.18S
N Myrtle Beach MOCLDY    53  51  93 CALM      30.16S

$$

GAZ063-065-086>088-099>101-113>116-118-119-134>141-150-181100-
...Southeast Georgia...

CITY           SKY/WX    TMP DP  RH WIND       PRES   REMARKS
Savannah Arpt  CLOUDY    57  54  89 CALM      30.17F
Hunter AAF     CLOUDY    57  55  92 CALM        N/A
Fort Stewart   CLOUDY    52  49  90 CALM        N/A
Statesboro     CLOUDY    56  51  82 S3        30.15F
Sylvania       CLOUDY    57  54  90 CALM      30.16F
Claxton        CLOUDY    56  53  90 CALM      30.16S

...CSRA, Central and far Southeast Georgia...

CITY           SKY/WX    TMP DP  RH WIND       PRES   REMARKS
Thomson        CLOUDY    49  44  81 CALM      30.20S
Augusta-Bush   CLOUDY    54  43  66 N3        30.14F
Augusta-Daniel CLOUDY    53  42  66 CALM      30.15F
Swainsboro     CLOUDY    59  59 100 CALM      30.15S
Vidalia        CLOUDY    59  55  88 CALM      30.16S
Eastman        CLOUDY    61  53  74 CALM      30.18R
Hazlehurst     CLOUDY    61  59  94 CALM      30.15S
Alma           MOCLDY    57  56  96 CALM      30.15R FOG
Waycross       MOCLDY    56  54  91 CALM      30.16R
Jesup          NOT AVBL
Baxley         CLOUDY    54  54 100 CALM      30.16R
Brunswick      FOG       54  52  94 CALM      30.17F VSB 1/4
Saint Simons   CLOUDY    59  58  96 CALM      30.16F

$$

SCZ027-028-034-036>038-045-046-048>050-GAZ119-141-181100-
...Lake and Supplemental Coastal Observations...

STATION/POSITION TIME  TEMP    WIND        PRES    WAVE   SWELL
                       AIR SEA DIR/SP/G            HT/PER HT/PER/DIR
                 (UTC) (F)     (DEG/KT/KT) (MB)    (FT/S) (FT/S/D)
Winyah Bay       0930   55      60/  2     1022.0S
Lake Murray      0930   51        CALM     1020.3F
ACE Basin NERRS  0945   57        CALM     1021.0F
Fort Pulaski     1000   57 53  120/  1/  1 1022.0
Sapelo Island    1000   59     160/  4     1021.0

$$

ANZ835-935-AMZ111-154-330-350-352-354-370-450-454-472-181100-
...C-MAN and Buoy Observations...

STATION/POSITION TIME  TEMP    WIND        PRES    WAVE   SWELL
                       AIR SEA DIR/SP/G            HT/PER HT/PER/DIR
                 (UTC) (F)     (DEG/KT/KT) (MB)    (FT/S) (FT/S/D)
Buoy 41004       1010   71 73  250/ 17/ 21 1021.5
Buoy 41008       0950   60 59  200/  6/  6 1021.7F   1/10   2/ 90/10
Folly Beach CMAN 1000   57     220/  8/  8 1022.0F
Capers Nearshore 0908   56 55  220/  6/  8 1021.5F


STATION/POSITION TIME  TEMP    WIND        PRES    WAVE   SWELL
                       AIR SEA DIR/SP/G            HT/PER HT/PER/DIR
                 (UTC) (F)     (DEG/KT/KT) (MB)    (FT/S) (FT/S/D)
5E St. Marys GA  0930      61                N/A     2/10
Frying Pan Buoy  1010   64 67  190/  2/  4 1021.2
Buoy 41025       1010   62 72  280/ 14/ 17 1021.3
Cape Lookout NC  1000          260/  1/  1 1021.9R
Buoy 41002       0950   71 74  230/ 10/ 12 1022.6F   2/ 9   2/ 80/ 9
Buoy 41010       NOT AVBL
St Augustine FL  1000   64 65  220/  6/  7 1022.4R


$$



USA.gov is the U.S. government's official web portal to all federal, state and local government web resources and services.